Regional Weather Roundup
Issued by NWS

Home | Current Version | Previous Version | Graphics & Text | Print | Product List | Glossary On
Versions: 1 2 3 4 5 6 7 8 9 10 11 12 13 14 15 16 17 18 19 20 21 22 23 24 25 26 27 28 29 30 31 32 33 34 35 36 37 38 39 40 41 42 43 44 45 46 47 48 49 50
784
ASUS45 KCYS 120610
RWRWY

WYOMING REGIONAL WEATHER ROUNDUP
NATIONAL WEATHER SERVICE CHEYENNE WY
1100 PM MST THU FEB 11 2016

NOTE:  "FAIR" INDICATES FEW OR NO CLOUDS BELOW 12,000 FEET
WITH NO SIGNIFICANT WEATHER AND/OR OBSTRUCTIONS TO VISIBILITY.

WYZ001-120700-
YELLOWSTONE NATIONAL PARK

CITY           SKY/WX    TMP DP  RH WIND       PRES   REMARKS
LK YELLOWSTONE   N/A     32  22  66 CALM      30.37S
6HR MIN TEMP:  32; 6HR MAX TEMP:  40;

W YELLOWSTONE  NOT AVBL

$$
WYZ002>013-054>058-071-098>099-120700-
NORTHERN WYOMING

CITY           SKY/WX    TMP DP  RH WIND       PRES   REMARKS
JACKSON        CLOUDY    34  30  86 N5        30.35S WCI  30
CODY           CLOUDY    39  19  45 SE5       30.24S
GREYBULL       CLOUDY    41  25  53 E7        30.22R
6HR MIN TEMP:  40; 6HR MAX TEMP:  56;

WORLAND        CLOUDY    35  29  78 CALM      30.23R
6HR MIN TEMP:  34; 6HR MAX TEMP:  46;

SHERIDAN       FAIR      37  25  61 W5        30.25R WCI  33
6HR MIN TEMP:  35; 6HR MAX TEMP:  50;

BUFFALO        FAIR      37  23  56 N6        30.25R WCI  32
6HR MIN TEMP:  34; 6HR MAX TEMP:  47;

GILLETTE       FAIR      33  26  75 W8        30.23R WCI  26
6HR MIN TEMP:  28; 6HR MAX TEMP:  45;

HULETT         CLOUDY    36  32  87 NW3       30.24R
NEWCASTLE      FAIR      32  27  80 N9        30.23R WCI  24

$$
WYZ014>020-022>026-101>103-120700-
CENTRAL WYOMING

CITY           SKY/WX    TMP DP  RH WIND       PRES   REMARKS
BIG PINEY      FAIR      29  23  78 CALM      30.37R
6HR MIN TEMP:  28; 6HR MAX TEMP:  46;

PINEDALE         N/A     23  21  93 NW6       30.37S WCI  16
DUBOIS         CLOUDY    36  25  64 NW10G16   30.28S WCI  28
LANDER         FAIR      39  24  55 W5        30.23S
6HR MIN TEMP:  36; 6HR MAX TEMP:  46;

RIVERTON       FAIR      33  24  69 N5        30.25S WCI  29
6HR MIN TEMP:  33; 6HR MAX TEMP:  47;

CASPER         FAIR      33  25  72 SW9       30.25R WCI  25
6HR MIN TEMP:  32; 6HR MAX TEMP:  40;

DOUGLAS        FAIR      27  24  89 CALM      30.26R
6HR MIN TEMP:  27; 6HR MAX TEMP:  44;


$$
WYZ021-027>030-104>119-120700-
SOUTHERN WYOMING

CITY           SKY/WX    TMP DP  RH WIND       PRES   REMARKS
EVANSTON       MOCLDY    35  16  45 SW8       30.37F WCI  29
6HR MIN TEMP:  35; 6HR MAX TEMP:  42;

KEMMERER       FAIR      30  19  64 NW7       30.38S WCI  23
FORT BRIDGER   PTCLDY    43  19  39 W15       30.39S
ROCK SPRINGS   FAIR      35  20  54 W15       30.36S WCI  25
6HR MIN TEMP:  34; 6HR MAX TEMP:  42;

DIXON          FAIR      24  16  71 SE3       30.41S
RAWLINS        FAIR      34  21  59 W23       30.33R WCI  22
6HR MIN TEMP:  34; 6HR MAX TEMP:  38;

SARATOGA       FAIR      30  21  69 E6        30.36R WCI  24
LARAMIE        FAIR      34  22  61 SW3       30.27F
6HR MIN TEMP:  30; 6HR MAX TEMP:  45;

CHEYENNE       FAIR      36  24  62 CALM      30.26S
6HR MIN TEMP:  34; 6HR MAX TEMP:  49;

TORRINGTON     FAIR      31  26  82 W6        30.24R WCI  25
6HR MIN TEMP:  31; 6HR MAX TEMP:  51;

PINE BLUFFS    FAIR      30  27  86 W9        30.26S WCI  22

$$




USA.gov is the U.S. government's official web portal to all federal, state and local government web resources and services.